Location: ??????
(56.0120°N, 39.1740°E)
Time: 08:59:41
(UTC+00:00)

ALOS 2 - Pass Details

Date: 14 April 2026
Orbit: 630 x 632 km, 97.9° (Epoch: 19 May)

Event Time Altitude Azimuth Distance (km) Brightness Sun altitude
Exits shadow 20:16:46 61° 101° (E) 724 2.7 -22.9°
Maximum altitude 20:17:10 65° 70° (ENE) 703 2.7 -22.9°
Drops below altitude 10° 20:21:32 10° 349° (N) 2,029 6.3 -23.1°
Sets 20:23:46 0° 347° (NNW) 2,942 7.5 -23.2°
